Weather in Gemena

Democratic Republic of the Congo     3°14′38″N   19°46′56″E
temp.,
°C
wind,
m/s
gust,
m/s
humid.,
%
clouds,
%
prec.,
mm/h
press.,
hPa
HPBL,
m
26 june, sun
sun2601:00+20sse1195100 0.0 101317
04:00+20s1196100 0.1 101227
07:00+22s129077 0.3 1014122
10:00+30s124992 0.0 10131043
13:00+32ese124488 0.0 10101509
16:00+32wnw124470 0.0 10091615
19:00+22ene128698 0.2 101129
22:00+21ssw019064 0.3 101211
27 june, mon
mon2701:00+20nne0097100 1.0 101212
04:00+20ssw009832 1.8 101215
07:00+22nw009698 1.8 101453
10:00+26wnw117368 0.0 1014446
13:00+33nw134253 0.0 10102139
16:00+30w125892 0.0 1009175
19:00+23se008767 0.3 101111
22:00+22s11935 0.6 101211
28 june, tue
tue2801:00+21sse019536 0.7 101211
04:00+20se119886 1.3 101215
07:00+21nnw0196100 1.8 101394
10:00+29ne116082 0.0 1013648
13:00+25ene117793 0.0 101140
16:00+30nnw115132 0.0 10091179
19:00+22ese1188100 0.4 101115
22:00+22wsw019689 0.9 101312
29 june, wed
wed2901:00+21wnw1199100 0.9 101247
04:00+21nw119840 0.0 101220
07:00+22n119351 0.0 101395
10:00+25nw127898 0.0 1013285
13:00+31nw224747 0.0 10101578
16:00+30nnw225389 0.0 1008689
19:00+22nne1297100 4.5 101143
22:00+21e1798100 0.7 1013168
30 june, thu
thu3001:00+21se1299100 2.1 101368
04:00+20ne1499100 2.3 1013132
07:00+20ene1599100 3.0 1015170
10:00+21n2597100 0.1 1015203
13:00+22nne1594100 0.1 1012212
16:00+22ene0190100 0.0 1012130
19:00+21nnw119098 0.0 101221
22:00+20ese009346 0.0 101412